Regional Weather Roundup
Issued by NWS Cleveland, OH

Home | Current Version | Previous Version | Graphics & Text | Print | Product List | Glossary On
Versions: 1 2 3 4 5 6 7 8 9 10 11 12 13 14 15 16 17 18 19 20 21 22 23 24 25 26 27 28 29 30 31 32 33 34 35 36 37 38 39 40 41 42 43 44 45 46 47 48 49 50
000
ASUS41 KCLE 250310
RWRCLE
OHIO REGIONAL WEATHER ROUNDUP
NATIONAL WEATHER SERVICE CLEVELAND, OH
1100 PM EDT FRI APR 24 2015

NOTE: "FAIR" INDICATES FEW OR NO CLOUDS BELOW 12,000 FEET WITH NO
SIGNIFICANT WEATHER AND/OR OBSTRUCTIONS TO VISIBILITY.

OHZ001>008-015>018-024>027-034-035-043-044-250400-
   NORTHWEST OHIO

CITY           SKY/WX    TMP DP  RH WIND       PRES   REMARKS
DEFIANCE       CLOUDY    53  30  41 NE9       29.96S
FINDLAY        CLOUDY    53  30  41 E7        29.94F
TOLEDO EXPRESS LGT RAIN  50  29  44 SE6       29.97R
TOLEDO EXEC    CLOUDY    46  32  58 E6        29.98S
LIMA           CLOUDY    51  32  48 SE6       29.95S
$$

OHZ009>014-019>023-028>033-038-089-250400-
   NORTHEAST OHIO

CITY           SKY/WX    TMP DP  RH WIND       PRES   REMARKS
CLE-HOPKINS    PTCLDY    43  22  43 E6        30.02F
CLE-LAKEFRONT  PTCLDY    44  22  41 NE6       30.00S
CUY CO. ARPT   MOCLDY    41  23  48 E8        30.02S
LORAIN-ELYRIA  PTCLDY    41  27  57 SE6       29.99F
ASHTABULA      CLEAR     34  21  59 E5        30.02F WCI  30
AKRON-CANTON   PTCLDY    41  22  46 NE7       29.99S
WOOSTER        CLEAR     40  27  59 E5        29.98F
MANSFIELD      CLOUDY    47  27  45 E7        29.97S
YOUNGSTOWN     MOCLDY    37  20  50 NE7       30.00F
$$

OHZ042-051>053-060>062-070>072-077>081-250400-
  SOUTHWEST OHIO

CITY           SKY/WX    TMP DP  RH WIND       PRES   REMARKS
CINC-COVINGTON CLOUDY    54  33  45 SE5       29.92F
CINC-LUNKEN    CLOUDY    56  34  43 CALM      29.94F
HAMILTON       CLOUDY    57  34  41 CALM      29.93F
DAYTON         CLOUDY    54  31  41 SE7       29.94F
WRIGHT-PAT AFB CLOUDY    54  30  40 E5        29.93F
DAYTON GENERAL LGT RAIN  53  32  44 SE8       29.93F
WILMINGTON     LGT RAIN  52  31  44 E3        29.94F
$$

OHZ036-037-039>041-045>050-054>059-063>069-073>076-082>088-250400-
  CENTRAL AND SOUTHEAST OHIO

CITY           SKY/WX    TMP DP  RH WIND       PRES   REMARKS
COLUMBUS       CLOUDY    51  31  46 CALM      29.95F
OSU AIRPORT    CLOUDY    51  25  36 CALM      29.95S
BOLTON FIELD   CLOUDY    49  35  59 CALM      29.96S
RICKENBACK AFB CLOUDY    49  35  58 CALM      29.95S
NEWARK         MOCLDY    44  38  79 CALM      29.96S
MARION         MOCLDY    48  31  51 CALM      29.96F
LANCASTER      CLOUDY    47  37  68 CALM      29.96F
ZANESVILLE     MOCLDY    45  28  51 CALM      29.96F
NEW PHILLY     CLEAR     44  29  55 CALM      29.98F
$$


USA.gov is the U.S. government's official web portal to all federal, state and local government web resources and services.